Regional Weather Roundup
Issued by NWS

Home | Current Version | Previous Version | Graphics & Text | Print | Product List | Glossary Off
Versions: 1 2 3 4 5 6 7 8 9 10 11 12 13 14 15 16 17 18 19 20 21 22 23 24 25 26 27 28 29 30 31 32 33 34 35 36 37 38 39 40 41 42 43 44 45 46 47 48 49 50

000
ASUS43 KTOP 241408
RWRKS

WEATHER ROUNDUP FOR KANSAS
NATIONAL WEATHER SERVICE GOODLAND KS
900 AM CDT FRI OCT 24 2014

NOTE:  "FAIR" INDICATES FEW OR NO CLOUDS BELOW 12,000 FEET WITH NO
SIGNIFICANT WEATHER AND/OR OBSTRUCTIONS TO VISIBILITY.

KSZ001>006-013>018-027>032-041>047-241500-
NORTHWEST KANSAS

CITY           SKY/WX    TMP DP  RH WIND       PRES   REMARKS
GOODLAND       CLEAR     53  41  63 W10       30.08R
HAYS           MOSUNNY   54  48  82 CALM      30.03R
HILL CITY      CLOUDY    54  52  93 W6        30.01R FOG
RUSSELL        PTSUNNY   57  55  93 S12       30.01R FOG
$$

KSZ061>065-074>080-084>089-241500-
SOUTHWEST KANSAS

CITY           SKY/WX    TMP DP  RH WIND       PRES   REMARKS
DODGE CITY     MOSUNNY   56  54  93 SW8       30.08R FOG
ELKHART          N/A     58  47  67 W8          N/A
GARDEN CITY    MOSUNNY   49  49 100 W6        30.08R
GREAT BEND     MOSUNNY   57  54  88 SW6       30.05R
LIBERAL        SUNNY     50  45  81 SW5       30.11R
PRATT          MOSUNNY   55  55 100 S6        30.07R FOG
$$

KSZ066>073-081>083-090>101-241500-
SOUTHEAST KANSAS

CITY           SKY/WX    TMP DP  RH WIND       PRES   REMARKS
CHANUTE        MOSUNNY   58  56  93 S9        30.09R
COFFEYVILLE    SUNNY     58  56  93 S8        30.10R
HUTCHINSON     FOG       59  57  93 S6        30.06R VSB 1/4
MEDICINE LODGE   N/A     56  56 100 CALM      30.08R
NEWTON         SUNNY     57  54  88 S12       30.08R
PARSONS        SUNNY     58  56  93 S7        30.11R
WICHITA INTL   MOSUNNY   59  57  93 S9        30.07R FOG
WICHITA JABRA  MOSUNNY   59  57  93 S8        30.07R FOG
WICHITA MCCONL MOSUNNY   59  59 100 S10       30.08R
WINFIELD       MOSUNNY   58  57  97 S10       30.10R
$$

KSZ007>012-019>026-033>040-048>060-102>105-241500-
NORTHEAST KANSAS

CITY           SKY/WX    TMP DP  RH WIND       PRES   REMARKS
CONCORDIA      PTSUNNY   59  59 100 SW9       29.99S FOG
EMPORIA        MOSUNNY   57  57 100 S8        30.06R FOG
LAWRENCE       CLOUDY    57  56  96 SW6       30.05R FOG
MANHATTAN      PTSUNNY   60  58  92 SW7       30.01S FOG
MARYSVILLE     CLOUDY    59  57  94 SW10      29.99S FOG
OLATHE IND     PTSUNNY   56  55  97 S8        30.06S FOG
OLATHE EXE     PTSUNNY   56  56 100 S7        30.06R FOG
SALINA         MOSUNNY   59  57  93 S6        30.02S FOG
TOPEKA BILLARD CLOUDY    60  59  96 S6        30.04R FOG
TOPEKA FORBES  CLOUDY    59  58  96 S10       30.04R FOG
$$



USA.gov is the U.S. government's official web portal to all federal, state and local government web resources and services.